Location: Artiguedieu
(43.5000°N, 0.5454°E)
Time: 22:55:15
(UTC+00:00)

Transit 2A Rocket - Pass Details

Date: 03 August 2021
Orbit: 586 x 916 km, 66.7° (Epoch: 19 September)

Event Time Altitude Azimuth Distance (km) Brightness Sun altitude
Rises 14:05:16 0° 228° (SW) 2,846 8.5 53.4°
Reaches altitude 10° 14:07:31 10° 235° (SW) 1,974 8.0 53.1°
Maximum altitude 14:11:46 44° 308° (NW) 896 6.2 52.4°
Drops below altitude 10° 14:16:23 10° 21° (NNE) 2,147 7.1 51.7°
Sets 14:18:56 0° 28° (NNE) 3,125 7.8 51.4°
